| time (UTC) | temp F | wind direction | speed knots | gust knots | rain 1hr in | rain 24hr in | rain mn in | humidity % | barometer mb |
| 20260506231524 | 68 | 202 | 0.0 | 12.2 | 0.00 | 0.02 | 0.02 | 79 | 1008.3 |
| 20260506231024 | 68 | 213 | 0.9 | 12.2 | 0.00 | 0.02 | 0.02 | 80 | 1008.5 |
| 20260506230524 | 68 | 214 | 0.0 | 12.2 | 0.00 | 0.02 | 0.02 | 80 | 1008.6 |
| 20260506230024 | 68 | 214 | 0.0 | 12.2 | 0.00 | 0.02 | 0.02 | 79 | 1008.4 |
| 20260506225524 | 68 | 214 | 0.9 | 12.2 | 0.00 | 0.02 | 0.02 | 79 | 1008.4 |
| 20260506225024 | 68 | 214 | 0.0 | 12.2 | 0.00 | 0.02 | 0.02 | 79 | 1008.5 |
| 20260506224523 | 68 | 214 | 0.0 | 12.2 | 0.00 | 0.02 | 0.02 | 79 | 1008.5 |
| 20260506224023 | 68 | 214 | 0.9 | 12.2 | 0.00 | 0.02 | 0.02 | 79 | 1008.5 |
| 20260506223523 | 68 | 205 | 0.9 | 12.2 | 0.00 | 0.02 | 0.02 | 79 | 1008.6 |
| 20260506223023 | 68 | 207 | 0.9 | 12.2 | 0.00 | 0.02 | 0.02 | 79 | 1008.5 |
| 20260506222523 | 68 | 207 | 0.9 | 12.2 | 0.00 | 0.02 | 0.02 | 79 | 1008.4 |
| 20260506222023 | 68 | 209 | 0.9 | 12.2 | 0.00 | 0.02 | 0.02 | 79 | 1008.3 |
| 20260506221523 | 68 | 234 | 0.0 | 12.2 | 0.00 | 0.02 | 0.02 | 79 | 1008.4 |
| 20260506221022 | 68 | 226 | 0.9 | 12.2 | 0.00 | 0.02 | 0.02 | 80 | 1008.5 |
| 20260506220522 | 68 | 238 | 0.0 | 12.2 | 0.00 | 0.02 | 0.02 | 80 | 1008.4 |
| 20260506220022 | 67 | 277 | 0.0 | 12.2 | 0.00 | 0.02 | 0.02 | 80 | 1008.4 |
| 20260506215522 | 68 | 272 | 0.0 | 12.2 | 0.00 | 0.02 | 0.02 | 80 | 1008.4 |
| 20260506215022 | 67 | 274 | 0.9 | 12.2 | 0.00 | 0.02 | 0.02 | 80 | 1008.3 |
| 20260506214522 | 67 | 274 | 0.0 | 12.2 | 0.00 | 0.02 | 0.02 | 79 | 1008.4 |
| 20260506214021 | 68 | 273 | 0.9 | 12.2 | 0.00 | 0.02 | 0.02 | 79 | 1008.4 |
| 20260506213521 | 68 | 271 | 0.9 | 12.2 | 0.00 | 0.02 | 0.02 | 79 | 1008.3 |
| 20260506213021 | 68 | 260 | 2.6 | 12.2 | 0.00 | 0.02 | 0.02 | 79 | 1008.2 |
| 20260506212521 | 68 | 223 | 1.7 | 12.2 | 0.00 | 0.02 | 0.02 | 80 | 1008.0 |
| 20260506212021 | 68 | 229 | 2.6 | 12.2 | 0.00 | 0.02 | 0.02 | 79 | 1008.0 |
| 20260506211521 | 67 | 218 | 0.9 | 12.2 | 0.00 | 0.02 | 0.02 | 80 | 1007.8 |
| 20260506211020 | 67 | 233 | 1.7 | 12.2 | 0.00 | 0.02 | 0.02 | 80 | 1007.8 |
| 20260506210520 | 67 | 200 | 0.9 | 12.2 | 0.00 | 0.02 | 0.02 | 80 | 1007.7 |
| 20260506210020 | 67 | 222 | 0.0 | 12.2 | 0.00 | 0.02 | 0.02 | 80 | 1007.7 |
| 20260506205520 | 67 | 226 | 0.9 | 12.2 | 0.00 | 0.02 | 0.02 | 80 | 1007.7 |
| 20260506205020 | 67 | 226 | 0.9 | 12.2 | 0.00 | 0.02 | 0.02 | 80 | 1007.7 |
| 20260506204520 | 67 | 212 | 0.0 | 12.2 | 0.00 | 0.02 | 0.02 | 81 | 1007.7 |
| 20260506204020 | 67 | 222 | 0.9 | 12.2 | 0.00 | 0.02 | 0.02 | 81 | 1007.6 |
| 20260506203519 | 67 | 222 | 0.0 | 12.2 | 0.00 | 0.02 | 0.02 | 81 | 1007.7 |
| 20260506203019 | 67 | 231 | 2.6 | 12.2 | 0.00 | 0.02 | 0.02 | 81 | 1007.6 |
| 20260506202519 | 66 | 228 | 0.0 | 12.2 | 0.00 | 0.02 | 0.02 | 81 | 1007.8 |
| 20260506202019 | 66 | 223 | 2.6 | 12.2 | 0.00 | 0.02 | 0.02 | 81 | 1007.8 |
| 20260506201519 | 66 | 221 | 0.9 | 12.2 | 0.00 | 0.02 | 0.02 | 81 | 1007.9 |
| 20260506201019 | 66 | 276 | 0.9 | 12.2 | 0.00 | 0.02 | 0.02 | 81 | 1007.9 |
| 20260506200519 | 66 | 207 | 0.0 | 12.2 | 0.00 | 0.02 | 0.02 | 81 | 1007.9 |
| 20260506200019 | 66 | 228 | 2.6 | 12.2 | 0.00 | 0.02 | 0.02 | 81 | 1008.0 |
| 20260506195518 | 66 | 276 | 1.7 | 12.2 | 0.00 | 0.02 | 0.02 | 80 | 1008.2 |
| 20260506195018 | 67 | 216 | 0.9 | 12.2 | 0.00 | 0.02 | 0.02 | 80 | 1008.2 |
| 20260506194518 | 67 | 272 | 1.7 | 12.2 | 0.00 | 0.02 | 0.02 | 79 | 1008.3 |
| 20260506194018 | 66 | 229 | 2.6 | 12.2 | 0.00 | 0.02 | 0.02 | 79 | 1008.3 |
| 20260506193518 | 66 | 203 | 0.9 | 12.2 | 0.00 | 0.02 | 0.02 | 80 | 1008.3 |
| 20260506193018 | 66 | 227 | 0.9 | 12.2 | 0.00 | 0.02 | 0.02 | 80 | 1008.3 |
| 20260506192518 | 66 | 224 | 1.7 | 12.2 | 0.00 | 0.02 | 0.02 | 80 | 1008.3 |
| 20260506192017 | 66 | 233 | 1.7 | 12.2 | 0.00 | 0.02 | 0.02 | 80 | 1008.4 |
| 20260506191517 | 66 | 223 | 1.7 | 12.2 | 0.00 | 0.02 | 0.02 | 81 | 1008.4 |
| 20260506191017 | 66 | 293 | 1.7 | 12.2 | 0.00 | 0.02 | 0.02 | 81 | 1008.4 |
| 20260506190517 | 66 | 228 | 2.6 | 12.2 | 0.00 | 0.02 | 0.02 | 82 | 1008.4 |
| 20260506190018 | 66 | 232 | 1.7 | 12.2 | 0.00 | 0.02 | 0.02 | 83 | 1008.4 |
| 20260506185517 | 65 | 220 | 0.9 | 12.2 | 0.00 | 0.02 | 0.02 | 83 | 1008.4 |
| 20260506185016 | 66 | 224 | 0.0 | 12.2 | 0.00 | 0.02 | 0.02 | 84 | 1008.5 |
| 20260506184516 | 66 | 215 | 1.7 | 12.2 | 0.00 | 0.02 | 0.02 | 83 | 1008.6 |
| 20260506184016 | 67 | 275 | 1.7 | 12.2 | 0.00 | 0.02 | 0.02 | 81 | 1008.6 |
| 20260506183516 | 67 | 210 | 0.9 | 12.2 | 0.00 | 0.02 | 0.02 | 79 | 1008.7 |
| 20260506183016 | 68 | 212 | 0.9 | 12.2 | 0.00 | 0.02 | 0.02 | 77 | 1008.6 |
| 20260506182516 | 68 | 295 | 1.7 | 12.2 | 0.00 | 0.02 | 0.02 | 75 | 1008.6 |
| 20260506182016 | 68 | 273 | 1.7 | 12.2 | 0.00 | 0.02 | 0.02 | 75 | 1008.6 |
| 20260506181515 | 68 | 227 | 2.6 | 12.2 | 0.00 | 0.02 | 0.02 | 76 | 1008.7 |
| 20260506181015 | 68 | 244 | 1.7 | 12.2 | 0.00 | 0.02 | 0.02 | 77 | 1008.7 |
| 20260506180515 | 68 | 225 | 0.9 | 12.2 | 0.00 | 0.02 | 0.02 | 78 | 1008.7 |
| 20260506180015 | 68 | 225 | 0.9 | 12.2 | 0.00 | 0.02 | 0.02 | 78 | 1008.8 |
| 20260506175515 | 68 | 206 | 0.9 | 12.2 | 0.00 | 0.02 | 0.02 | 79 | 1008.9 |
| 20260506175015 | 68 | 203 | 0.0 | 12.2 | 0.01 | 0.02 | 0.02 | 79 | 1008.7 |
| 20260506174515 | 68 | 210 | 0.9 | 12.2 | 0.01 | 0.02 | 0.02 | 79 | 1008.7 |
| 20260506174014 | 68 | 215 | 0.9 | 12.2 | 0.01 | 0.02 | 0.02 | 80 | 1008.7 |
| 20260506173514 | 68 | 212 | 0.0 | 12.2 | 0.01 | 0.02 | 0.02 | 80 | 1008.8 |
| 20260506173014 | 68 | 156 | 0.9 | 12.2 | 0.01 | 0.02 | 0.02 | 81 | 1008.9 |
| 20260506172514 | 67 | 227 | 0.9 | 12.2 | 0.01 | 0.02 | 0.02 | 82 | 1008.9 |
| 20260506172014 | 67 | 207 | 0.0 | 12.2 | 0.01 | 0.02 | 0.02 | 83 | 1008.9 |
| 20260506171514 | 67 | 198 | 0.0 | 12.2 | 0.02 | 0.02 | 0.02 | 83 | 1008.9 |
| 20260506171014 | 67 | 221 | 0.9 | 12.2 | 0.02 | 0.02 | 0.02 | 82 | 1009.1 |
| 20260506170514 | 66 | 221 | 0.9 | 12.2 | 0.02 | 0.02 | 0.02 | 82 | 1009.2 |
| 20260506170014 | 66 | 228 | 0.0 | 12.2 | 0.02 | 0.02 | 0.02 | 81 | 1009.5 |
| 20260506165513 | 66 | 220 | 1.7 | 12.2 | 0.02 | 0.02 | 0.02 | 82 | 1009.7 |
| 20260506165013 | 66 | 215 | 0.0 | 12.2 | 0.01 | 0.01 | 0.01 | 81 | 1009.9 |
| 20260506164513 | 66 | 197 | 0.9 | 12.2 | 0.01 | 0.01 | 0.01 | 82 | 1010.0 |
| 20260506164013 | 66 | 224 | 1.7 | 12.2 | 0.01 | 0.01 | 0.01 | 81 | 1010.1 |
| 20260506163513 | 66 | 217 | 0.9 | 12.2 | 0.01 | 0.01 | 0.01 | 80 | 1010.1 |
| 20260506163013 | 67 | 222 | 0.9 | 12.2 | 0.01 | 0.01 | 0.01 | 79 | 1010.0 |
| 20260506162512 | 67 | 245 | 1.7 | 12.2 | 0.01 | 0.01 | 0.01 | 77 | 1010.1 |
| 20260506162012 | 68 | 259 | 1.7 | 12.2 | 0.01 | 0.01 | 0.01 | 75 | 1010.3 |
| 20260506161512 | 69 | 195 | 0.9 | 12.2 | 0.00 | 0.00 | 0.00 | 73 | 1010.2 |
| 20260506161012 | 70 | 254 | 2.6 | 12.2 | 0.00 | 0.00 | 0.00 | 70 | 1010.3 |
| 20260506160512 | 71 | 219 | 0.9 | 12.2 | 0.00 | 0.00 | 0.00 | 67 | 1010.4 |
| 20260506160012 | 71 | 260 | 1.7 | 12.2 | 0.00 | 0.00 | 0.00 | 65 | 1010.2 |
| 20260506155512 | 71 | 225 | 2.6 | 12.2 | 0.00 | 0.00 | 0.00 | 64 | 1010.2 |
| 20260506155011 | 72 | 276 | 1.7 | 12.2 | 0.00 | 0.00 | 0.00 | 63 | 1010.3 |
| 20260506154511 | 72 | 227 | 2.6 | 12.2 | 0.00 | 0.00 | 0.00 | 63 | 1010.3 |
| 20260506154011 | 72 | 228 | 2.6 | 12.2 | 0.00 | 0.00 | 0.00 | 63 | 1010.3 |
| 20260506153511 | 72 | 264 | 0.9 | 12.2 | 0.00 | 0.00 | 0.00 | 64 | 1010.2 |
| 20260506153011 | 71 | 212 | 4.3 | 12.2 | 0.00 | 0.00 | 0.00 | 64 | 1010.2 |
| 20260506152511 | 71 | 237 | 2.6 | 12.2 | 0.00 | 0.00 | 0.00 | 65 | 1010.1 |
| 20260506152010 | 71 | 216 | 5.2 | 12.2 | 0.00 | 0.00 | 0.00 | 64 | 1010.1 |
| 20260506151511 | 71 | 273 | 1.7 | 12.2 | 0.00 | 0.00 | 0.00 | 64 | 1010.4 |
| 20260506151010 | 72 | 241 | 2.6 | 12.2 | 0.00 | 0.00 | 0.00 | 64 | 1010.5 |
| 20260506150510 | 72 | 232 | 4.3 | 12.2 | 0.00 | 0.00 | 0.00 | 63 | 1010.4 |
| 20260506150010 | 72 | 212 | 2.6 | 12.2 | 0.00 | 0.00 | 0.00 | 63 | 1010.6 |
| 20260506145510 | 72 | 224 | 2.6 | 12.2 | 0.00 | 0.00 | 0.00 | 63 | 1010.5 |
| 20260506145010 | 73 | 273 | 1.7 | 12.2 | 0.00 | 0.00 | 0.00 | 62 | 1010.5 |
| 20260506144509 | 73 | 166 | 0.9 | 12.2 | 0.00 | 0.00 | 0.00 | 63 | 1010.5 |
| 20260506144009 | 73 | 255 | 4.3 | 12.2 | 0.00 | 0.00 | 0.00 | 63 | 1010.3 |
| 20260506143509 | 73 | 232 | 4.3 | 12.2 | 0.00 | 0.00 | 0.00 | 63 | 1010.4 |
| 20260506143009 | 73 | 237 | 1.7 | 12.2 | 0.00 | 0.00 | 0.00 | 64 | 1010.4 |
| 20260506142509 | 72 | 271 | 0.9 | 12.2 | 0.00 | 0.00 | 0.00 | 65 | 1010.3 |
| 20260506142009 | 72 | 271 | 0.9 | 12.2 | 0.00 | 0.00 | 0.00 | 65 | 1010.3 |
| 20260506141508 | 71 | 271 | 0.9 | 12.2 | 0.00 | 0.00 | 0.00 | 65 | 1010.2 |
| 20260506141008 | 71 | 228 | 0.9 | 12.2 | 0.00 | 0.00 | 0.00 | 65 | 1010.3 |
| 20260506140508 | 72 | 250 | 4.3 | 12.2 | 0.00 | 0.00 | 0.00 | 65 | 1010.3 |
| 20260506140008 | 72 | 195 | 1.7 | 12.2 | 0.00 | 0.00 | 0.00 | 66 | 1010.3 |
| 20260506135508 | 71 | 262 | 1.7 | 12.2 | 0.00 | 0.00 | 0.00 | 65 | 1010.3 |
| 20260506135008 | 71 | 228 | 2.6 | 12.2 | 0.00 | 0.00 | 0.00 | 66 | 1010.5 |
| 20260506134507 | 71 | 254 | 2.6 | 12.2 | 0.00 | 0.00 | 0.00 | 66 | 1010.4 |
| 20260506134007 | 71 | 229 | 2.6 | 12.2 | 0.00 | 0.00 | 0.00 | 66 | 1010.6 |
| 20260506133507 | 71 | 261 | 0.9 | 12.2 | 0.00 | 0.00 | 0.00 | 66 | 1010.6 |
| 20260506133007 | 71 | 226 | 1.7 | 12.2 | 0.00 | 0.00 | 0.00 | 68 | 1010.6 |
| 20260506132507 | 71 | 233 | 1.7 | 12.2 | 0.00 | 0.00 | 0.00 | 68 | 1010.6 |
| 20260506132007 | 70 | 263 | 0.9 | 12.2 | 0.00 | 0.00 | 0.00 | 69 | 1010.7 |
| 20260506131507 | 70 | 218 | 1.7 | 12.2 | 0.00 | 0.00 | 0.00 | 69 | 1010.8 |
| 20260506131006 | 69 | 204 | 0.9 | 12.2 | 0.00 | 0.00 | 0.00 | 70 | 1010.7 |
| 20260506130506 | 69 | 201 | 2.6 | 12.2 | 0.00 | 0.00 | 0.00 | 70 | 1010.8 |
| 20260506130006 | 69 | 212 | 0.9 | 12.2 | 0.00 | 0.00 | 0.00 | 71 | 1010.8 |
| 20260506125506 | 69 | 214 | 1.7 | 12.2 | 0.00 | 0.00 | 0.00 | 72 | 1010.7 |
| 20260506125006 | 68 | 210 | 1.7 | 12.2 | 0.00 | 0.00 | 0.00 | 72 | 1010.8 |
| 20260506124506 | 68 | 233 | 0.9 | 12.2 | 0.00 | 0.00 | 0.00 | 73 | 1010.7 |
| 20260506124005 | 67 | 224 | 2.6 | 12.2 | 0.00 | 0.00 | 0.00 | 73 | 1010.7 |
| 20260506123505 | 67 | 192 | 1.7 | 12.2 | 0.00 | 0.00 | 0.00 | 74 | 1010.7 |
| 20260506123005 | 67 | 231 | 1.7 | 12.2 | 0.00 | 0.00 | 0.00 | 74 | 1010.8 |
| 20260506122505 | 67 | 226 | 0.9 | 12.2 | 0.00 | 0.00 | 0.00 | 74 | 1010.9 |
| 20260506122005 | 67 | 222 | 1.7 | 12.2 | 0.00 | 0.00 | 0.00 | 74 | 1010.8 |
| 20260506121505 | 67 | 224 | 4.3 | 12.2 | 0.00 | 0.00 | 0.00 | 73 | 1010.8 |
| 20260506121004 | 67 | 223 | 2.6 | 12.2 | 0.00 | 0.00 | 0.00 | 73 | 1010.8 |
| 20260506120504 | 67 | 212 | 1.7 | 12.2 | 0.00 | 0.00 | 0.00 | 73 | 1010.9 |
| 20260506120004 | 68 | 232 | 1.7 | 12.2 | 0.00 | 0.00 | 0.00 | 73 | 1011.0 |
| 20260506115504 | 68 | 229 | 1.7 | 12.2 | 0.00 | 0.00 | 0.00 | 73 | 1011.1 |
| 20260506115004 | 68 | 223 | 1.7 | 12.2 | 0.00 | 0.00 | 0.00 | 73 | 1011.0 |
| 20260506114504 | 68 | 141 | 1.7 | 12.2 | 0.00 | 0.00 | 0.00 | 73 | 1010.8 |
| 20260506114004 | 67 | 242 | 0.9 | 12.2 | 0.00 | 0.00 | 0.00 | 74 | 1011.1 |
| 20260506113503 | 67 | 209 | 2.6 | 12.2 | 0.00 | 0.00 | 0.00 | 75 | 1011.1 |
| 20260506113003 | 66 | 192 | 1.7 | 12.2 | 0.00 | 0.00 | 0.00 | 77 | 1011.1 |
| 20260506112503 | 65 | 235 | 1.7 | 12.2 | 0.00 | 0.00 | 0.00 | 77 | 1011.0 |
| 20260506112003 | 65 | 209 | 1.7 | 12.2 | 0.00 | 0.00 | 0.00 | 78 | 1011.2 |
| 20260506111503 | 65 | 215 | 1.7 | 12.2 | 0.00 | 0.00 | 0.00 | 78 | 1011.0 |
| 20260506111003 | 65 | 221 | 0.9 | 12.2 | 0.00 | 0.00 | 0.00 | 79 | 1011.1 |
| 20260506110503 | 64 | 216 | 1.7 | 12.2 | 0.00 | 0.00 | 0.00 | 79 | 1011.0 |
| 20260506110002 | 64 | 222 | 0.9 | 12.2 | 0.00 | 0.00 | 0.00 | 80 | 1010.9 |
| 20260506105502 | 64 | 215 | 1.7 | 12.2 | 0.00 | 0.00 | 0.00 | 81 | 1011.0 |
| 20260506105002 | 63 | 230 | 0.9 | 12.2 | 0.00 | 0.00 | 0.00 | 81 | 1010.9 |
| 20260506104502 | 63 | 214 | 0.9 | 12.2 | 0.00 | 0.00 | 0.00 | 81 | 1011.0 |
| 20260506104002 | 63 | 218 | 1.7 | 12.2 | 0.00 | 0.00 | 0.00 | 81 | 1011.1 |
| 20260506103502 | 63 | 225 | 1.7 | 12.2 | 0.00 | 0.00 | 0.00 | 81 | 1011.0 |
| 20260506103001 | 63 | 217 | 1.7 | 12.2 | 0.00 | 0.00 | 0.00 | 81 | 1011.0 |
| 20260506102501 | 63 | 202 | 1.7 | 12.2 | 0.00 | 0.00 | 0.00 | 82 | 1010.9 |
| 20260506102001 | 63 | 246 | 2.6 | 12.2 | 0.00 | 0.00 | 0.00 | 82 | 1011.0 |
| 20260506101501 | 63 | 220 | 1.7 | 12.2 | 0.00 | 0.00 | 0.00 | 82 | 1010.8 |
| 20260506101001 | 63 | 216 | 1.7 | 12.2 | 0.00 | 0.00 | 0.00 | 82 | 1010.8 |
| 20260506100501 | 63 | 215 | 0.9 | 12.2 | 0.00 | 0.00 | 0.00 | 82 | 1010.8 |
| 20260506100001 | 63 | 193 | 0.9 | 12.2 | 0.00 | 0.00 | 0.00 | 82 | 1010.8 |
| 20260506095501 | 63 | 223 | 1.7 | 12.2 | 0.00 | 0.00 | 0.00 | 82 | 1010.7 |
| 20260506095001 | 63 | 224 | 2.6 | 12.2 | 0.00 | 0.00 | 0.00 | 82 | 1010.7 |
| 20260506094500 | 63 | 203 | 2.6 | 12.2 | 0.00 | 0.00 | 0.00 | 82 | 1010.8 |
| 20260506094000 | 63 | 219 | 0.9 | 12.2 | 0.00 | 0.00 | 0.00 | 82 | 1010.8 |
| 20260506093500 | 63 | 218 | 1.7 | 12.2 | 0.00 | 0.00 | 0.00 | 82 | 1010.8 |
| 20260506093000 | 63 | 214 | 1.7 | 12.2 | 0.00 | 0.00 | 0.00 | 82 | 1010.8 |
| 20260506092500 | 63 | 208 | 0.9 | 12.2 | 0.00 | 0.00 | 0.00 | 82 | 1010.9 |
| 20260506092000 | 63 | 214 | 1.7 | 12.2 | 0.00 | 0.00 | 0.00 | 82 | 1010.9 |
| 20260506091459 | 63 | 218 | 2.6 | 12.2 | 0.00 | 0.00 | 0.00 | 82 | 1010.9 |
| 20260506090959 | 63 | 269 | 1.7 | 12.2 | 0.00 | 0.00 | 0.00 | 82 | 1010.9 |
| 20260506090459 | 63 | 211 | 1.7 | 12.2 | 0.00 | 0.00 | 0.00 | 82 | 1010.9 |
| 20260506085959 | 63 | 214 | 0.9 | 12.2 | 0.00 | 0.00 | 0.00 | 81 | 1010.9 |
| 20260506085459 | 64 | 205 | 0.9 | 12.2 | 0.00 | 0.00 | 0.00 | 81 | 1011.0 |
| 20260506084959 | 64 | 227 | 1.7 | 12.2 | 0.00 | 0.00 | 0.00 | 81 | 1011.0 |
| 20260506084459 | 64 | 259 | 1.7 | 12.2 | 0.00 | 0.00 | 0.00 | 81 | 1011.0 |
| 20260506083958 | 64 | 219 | 2.6 | 12.2 | 0.00 | 0.00 | 0.00 | 81 | 1011.0 |
| 20260506083458 | 64 | 196 | 4.3 | 12.2 | 0.00 | 0.00 | 0.00 | 81 | 1011.0 |
| 20260506082958 | 64 | 211 | 4.3 | 10.4 | 0.00 | 0.00 | 0.00 | 81 | 1011.0 |
| 20260506082458 | 64 | 224 | 1.7 | 10.4 | 0.00 | 0.00 | 0.00 | 81 | 1011.1 |
| 20260506081958 | 64 | 240 | 1.7 | 10.4 | 0.00 | 0.00 | 0.00 | 81 | 1011.2 |
| 20260506081458 | 64 | 198 | 1.7 | 10.4 | 0.00 | 0.00 | 0.00 | 81 | 1011.2 |
| 20260506080957 | 64 | 206 | 0.9 | 10.4 | 0.00 | 0.00 | 0.00 | 81 | 1011.3 |
| 20260506080457 | 64 | 223 | 1.7 | 10.4 | 0.00 | 0.00 | 0.00 | 81 | 1011.2 |
| 20260506073456 | 64 | 192 | 1.7 | 10.4 | 0.00 | 0.00 | 0.00 | 80 | 1011.2 |
| 20260506072956 | 64 | 222 | 0.9 | 10.4 | 0.00 | 0.00 | 0.00 | 80 | 1011.2 |
| 20260506072456 | 64 | 252 | 0.9 | 10.4 | 0.00 | 0.00 | 0.00 | 80 | 1011.3 |
| 20260506071956 | 64 | 215 | 1.7 | 10.4 | 0.00 | 0.00 | 0.00 | 79 | 1011.4 |
| 20260506071456 | 64 | 213 | 0.9 | 10.4 | 0.00 | 0.00 | 0.00 | 79 | 1011.4 |
| 20260506070956 | 65 | 196 | 1.7 | 10.4 | 0.00 | 0.00 | 0.00 | 78 | 1011.5 |
| 20260506070456 | 65 | 209 | 2.6 | 10.4 | 0.00 | 0.00 | 0.00 | 78 | 1011.5 |
| 20260506062454 | 66 | 214 | 2.6 | 10.4 | 0.00 | 0.00 | 0.00 | 76 | 1011.4 |
| 20260506061954 | 66 | 224 | 2.6 | 10.4 | 0.00 | 0.00 | 0.00 | 76 | 1011.3 |
| 20260506061454 | 66 | 213 | 1.7 | 10.4 | 0.00 | 0.00 | 0.00 | 75 | 1011.3 |
| 20260506060954 | 66 | 211 | 2.6 | 10.4 | 0.00 | 0.00 | 0.00 | 75 | 1011.2 |
| 20260506060454 | 66 | 205 | 2.6 | 10.4 | 0.00 | 0.00 | 0.00 | 74 | 1011.3 |
| 20260506050952 | 67 | 222 | 1.7 | 10.4 | 0.00 | 0.00 | 0.00 | 72 | 1011.7 |
| 20260506050452 | 67 | 228 | 2.6 | 10.4 | 0.00 | 0.00 | 0.00 | 72 | 1011.7 |
| 20260506044951 | 67 | 215 | 4.3 | 9.6 | 0.00 | 0.00 | 0.00 | 71 | 1011.7 |
| 20260506044451 | 67 | 221 | 1.7 | 9.6 | 0.00 | 0.00 | 0.00 | 71 | 1011.8 |
| 20260506043951 | 67 | 218 | 1.7 | 9.6 | 0.00 | 0.00 | 0.00 | 71 | 1011.8 |
| 20260506043451 | 67 | 227 | 4.3 | 9.6 | 0.00 | 0.00 | 0.00 | 71 | 1011.7 |
| 20260506042951 | 67 | 273 | 1.7 | 9.6 | 0.00 | 0.00 | 0.00 | 71 | 1011.7 |
| 20260506042451 | 67 | 240 | 1.7 | 9.6 | 0.00 | 0.00 | 0.00 | 71 | 1011.7 |
| 20260506041951 | 67 | 218 | 1.7 | 9.6 | 0.00 | 0.00 | 0.00 | 70 | 1011.7 |
| 20260506041450 | 67 | 225 | 1.7 | 9.6 | 0.00 | 0.00 | 0.00 | 70 | 1011.8 |
| 20260506040950 | 67 | 215 | 2.6 | 9.6 | 0.00 | 0.00 | 0.00 | 70 | 1011.8 |
| 20260506040450 | 67 | 237 | 4.3 | 9.6 | 0.00 | 0.00 | 0.00 | 70 | 1011.8 |
| 20260506035950 | 68 | 232 | 5.2 | 17.4 | 0.00 | 0.00 | 0.00 | 69 | 1011.7 |
| 20260506035450 | 68 | 215 | 2.6 | 17.4 | 0.00 | 0.00 | 0.00 | 69 | 1011.7 |
| 20260506034950 | 68 | 220 | 4.3 | 17.4 | 0.00 | 0.00 | 0.00 | 68 | 1011.8 |
| 20260506034450 | 68 | 216 | 1.7 | 17.4 | 0.00 | 0.00 | 0.00 | 68 | 1011.8 |
| 20260506033949 | 68 | 236 | 4.3 | 17.4 | 0.00 | 0.00 | 0.00 | 67 | 1011.8 |
| 20260506033449 | 68 | 248 | 2.6 | 17.4 | 0.00 | 0.00 | 0.00 | 67 | 1011.7 |
| 20260506032949 | 68 | 230 | 1.7 | 17.4 | 0.00 | 0.00 | 0.00 | 67 | 1011.7 |
| 20260506032449 | 68 | 213 | 2.6 | 17.4 | 0.00 | 0.00 | 0.00 | 66 | 1011.7 |
| 20260506031949 | 69 | 197 | 0.9 | 17.4 | 0.00 | 0.00 | 0.00 | 66 | 1011.7 |
| 20260506031449 | 69 | 213 | 2.6 | 17.4 | 0.00 | 0.00 | 0.00 | 65 | 1011.7 |
| 20260506030948 | 69 | 243 | 2.6 | 17.4 | 0.00 | 0.00 | 0.00 | 65 | 1011.6 |
| 20260506030448 | 69 | 235 | 2.6 | 17.4 | 0.00 | 0.00 | 0.00 | 65 | 1011.6 |
| 20260506025948 | 69 | 220 | 1.7 | 17.4 | 0.00 | 0.00 | 0.00 | 64 | 1011.7 |
| 20260506025448 | 69 | 224 | 4.3 | 17.4 | 0.00 | 0.00 | 0.00 | 64 | 1011.5 |
| 20260506024948 | 69 | 219 | 4.3 | 17.4 | 0.00 | 0.00 | 0.00 | 64 | 1011.6 |
| 20260506024448 | 69 | 228 | 1.7 | 17.4 | 0.00 | 0.00 | 0.00 | 64 | 1011.7 |
| 20260506023948 | 69 | 222 | 2.6 | 17.4 | 0.00 | 0.00 | 0.00 | 64 | 1011.7 |
| 20260506023448 | 69 | 203 | 2.6 | 17.4 | 0.00 | 0.00 | 0.00 | 64 | 1011.7 |
| 20260506022947 | 69 | 213 | 1.7 | 17.4 | 0.00 | 0.00 | 0.00 | 64 | 1011.7 |
| 20260506022447 | 69 | 219 | 2.6 | 17.4 | 0.00 | 0.00 | 0.00 | 64 | 1011.7 |
| 20260506021947 | 69 | 220 | 4.3 | 17.4 | 0.00 | 0.00 | 0.00 | 63 | 1011.6 |
| 20260506021447 | 69 | 221 | 4.3 | 17.4 | 0.00 | 0.00 | 0.00 | 63 | 1011.5 |
| 20260506020947 | 69 | 205 | 4.3 | 17.4 | 0.00 | 0.00 | 0.00 | 63 | 1011.5 |
| 20260506020447 | 69 | 226 | 4.3 | 17.4 | 0.00 | 0.00 | 0.00 | 63 | 1011.4 |
| 20260506015947 | 69 | 226 | 0.9 | 17.4 | 0.00 | 0.00 | 0.00 | 63 | 1011.5 |
| 20260506015416 | 69 | 237 | 1.7 | 17.4 | 0.00 | 0.00 | 0.00 | 63 | 1011.5 |
| 20260506014916 | 69 | 215 | 1.7 | 17.4 | 0.00 | 0.00 | 0.00 | 63 | 1011.5 |
| 20260506014416 | 69 | 231 | 1.7 | 17.4 | 0.00 | 0.00 | 0.00 | 63 | 1011.4 |
| 20260506013916 | 70 | 210 | 2.6 | 17.4 | 0.00 | 0.00 | 0.00 | 63 | 1011.4 |
| 20260506013416 | 70 | 220 | 4.3 | 17.4 | 0.00 | 0.00 | 0.00 | 62 | 1011.3 |
| 20260506012916 | 70 | 258 | 1.7 | 17.4 | 0.00 | 0.00 | 0.00 | 62 | 1011.3 |
| 20260506012415 | 70 | 204 | 2.6 | 17.4 | 0.00 | 0.00 | 0.00 | 62 | 1011.2 |
| 20260506011915 | 70 | 213 | 1.7 | 17.4 | 0.00 | 0.00 | 0.00 | 62 | 1011.1 |
| 20260506011415 | 70 | 233 | 1.7 | 17.4 | 0.00 | 0.00 | 0.00 | 62 | 1011.2 |
| 20260506010915 | 71 | 229 | 1.7 | 17.4 | 0.00 | 0.00 | 0.00 | 61 | 1011.2 |
| 20260506010415 | 71 | 121 | 0.9 | 17.4 | 0.00 | 0.00 | 0.00 | 61 | 1011.1 |
| 20260506005915 | 71 | 222 | 1.7 | 17.4 | 0.00 | 0.00 | 0.00 | 60 | 1010.9 |
| 20260506005415 | 71 | 227 | 1.7 | 17.4 | 0.00 | 0.00 | 0.00 | 60 | 1011.0 |
| 20260506004914 | 71 | 232 | 2.6 | 17.4 | 0.00 | 0.00 | 0.00 | 59 | 1010.9 |
| 20260506004414 | 72 | 214 | 2.6 | 17.4 | 0.00 | 0.00 | 0.00 | 59 | 1010.9 |
| 20260506003914 | 72 | 226 | 1.7 | 17.4 | 0.00 | 0.00 | 0.00 | 58 | 1010.7 |
| 20260506003414 | 73 | 215 | 1.7 | 17.4 | 0.00 | 0.00 | 0.00 | 57 | 1010.8 |
| 20260506002914 | 74 | 186 | 1.7 | 17.4 | 0.00 | 0.00 | 0.00 | 54 | 1010.6 |
| 20260506002414 | 75 | 227 | 1.7 | 17.4 | 0.00 | 0.00 | 0.00 | 50 | 1010.5 |
| 20260506001913 | 76 | 242 | 2.6 | 17.4 | 0.00 | 0.00 | 0.00 | 46 | 1010.3 |
| 20260506001413 | 76 | 231 | 2.6 | 17.4 | 0.00 | 0.00 | 0.00 | 46 | 1010.2 |
| 20260506000913 | 77 | 226 | 1.7 | 17.4 | 0.00 | 0.00 | 0.00 | 46 | 1010.3 |
| 20260506000413 | 77 | 211 | 4.3 | 17.4 | 0.00 | 0.00 | 0.00 | 45 | 1010.2 |
| 20260505235913 | 77 | 257 | 2.6 | 17.4 | 0.00 | 0.00 | 0.00 | 45 | 1010.1 |
| 20260505235413 | 77 | 307 | 1.7 | 17.4 | 0.00 | 0.00 | 0.00 | 45 | 1010.1 |
| 20260505234912 | 77 | 231 | 1.7 | 17.4 | 0.00 | 0.00 | 0.00 | 45 | 1010.2 |
| 20260505234412 | 78 | 218 | 2.6 | 17.4 | 0.00 | 0.00 | 0.00 | 44 | 1010.0 |
| 20260505233912 | 78 | 234 | 2.6 | 17.4 | 0.00 | 0.00 | 0.00 | 43 | 1009.8 |
| 20260505233412 | 78 | 244 | 1.7 | 17.4 | 0.00 | 0.00 | 0.00 | 43 | 1009.8 |
| 20260505232912 | 78 | 216 | 2.6 | 17.4 | 0.00 | 0.00 | 0.00 | 42 | 1009.7 |
| 20260505232412 | 79 | 225 | 2.6 | 17.4 | 0.00 | 0.00 | 0.00 | 41 | 1009.6 |
| 20260505231912 | 79 | 252 | 1.7 | 17.4 | 0.00 | 0.00 | 0.00 | 40 | 1009.5 |